Date,TemperatureHighF,TemperatureAvgF,TemperatureLowF,DewpointHighF,DewpointAvgF,DewpointLowF,HumidityHigh,HumidityAvg,HumidityLow,PressureMaxIn,PressureMinIn,WindSpeedMaxMPH,WindSpeedAvgMPH,GustSpeedMaxMPH,PrecipitationSumIn
2012-11-7,36.5,30.0,30.2,30.0,8.3,-99.9,99,57,41,29.91,29.71,13,-106,0,0.01
2012-11-8,38.7,36.0,31.1,37.7,34.9,30.5,99,95,84,29.69,0.00,16,7,17,0.45
2012-11-9,46.8,42.9,31.8,34.2,31.0,26.9,85,64,54,30.21,29.65,13,6,13,0.00
2012-11-10,53.8,41.3,30.7,34.1,25.8,19.4,93,59,27,30.38,29.98,10,2,13,0.00
2012-11-11,62.6,46.3,29.7,46.3,39.2,27.5,98,78,49,30.41,30.30,9,1,9,0.00
2012-11-12,64.4,52.3,43.3,57.8,48.9,43.0,99,89,55,30.36,30.12,10,2,10,0.00
2012-11-13,64.8,49.0,38.8,60.8,45.5,31.2,96,88,74,30.33,30.00,15,4,15,0.24
2012-11-14,46.8,37.5,30.0,31.9,25.5,20.5,86,63,36,30.46,30.29,10,3,10,0.01
2012-11-15,43.5,33.8,28.0,32.1,27.5,23.5,99,79,50,30.41,30.22,13,3,13,0.00
2012-11-16,45.9,35.1,27.5,30.7,28.9,18.7,99,80,48,30.33,30.20,9,1,9,0.00
2012-11-17,48.4,33.7,24.3,31.8,28.0,24.1,99,82,49,30.57,30.33,7,1,7,0.00
2012-11-18,45.9,32.5,24.4,29.9,26.9,24.1,99,82,52,30.74,30.55,13,2,13,0.00
2012-11-19,46.9,33.5,24.4,35.8,27.9,21.0,99,81,59,30.55,30.19,9,2,9,0.00
2012-11-20,26.2,24.1,23.9,26.0,23.9,23.7,99,99,99,30.19,30.15,0,0,0,0.00
2012-11-21,23.9,23.9,23.9,23.7,23.7,23.7,99,99,99,30.15,30.15,0,0,0,0.00
2012-11-22,23.9,23.9,23.9,23.7,23.7,23.7,99,99,99,30.15,29.75,0,0,0,0.00
2012-11-23,23.9,23.9,23.9,23.7,23.7,23.7,99,99,99,30.15,29.77,0,0,0,0.00
2012-11-25,30.7,29.8,28.6,22.8,22.6,22.3,78,74,72,29.74,29.50,4,1,4,0.00
2012-11-26,46.6,32.8,22.3,27.0,22.8,18.5,92,69,35,30.15,29.74,16,3,16,0.00
2012-11-27,38.1,30.5,21.4,35.4,28.8,19.7,99,93,76,30.23,30.15,7,1,7,0.14
2012-11-28,37.0,30.4,21.4,31.3,24.2,20.7,99,79,55,30.15,30.02,8,3,8,0.00
2012-11-29,43.0,34.5,24.8,25.6,22.5,17.9,95,63,43,30.15,30.02,14,4,14,0.01
2012-11-30,38.7,29.5,26.4,26.6,10.9,4.6,66,46,36,30.48,30.09,12,4,12,0.00
2012-12-1,27.5,26.2,24.1,25.6,18.9,5.0,95,76,38,30.57,30.42,7,3,7,0.00
2012-12-2,49.6,36.9,26.8,46.6,35.7,25.8,99,96,85,30.42,29.92,14,2,14,0.22
2012-12-3,55.8,45.5,30.4,47.5,41.0,30.2,99,86,57,30.21,29.90,14,3,14,0.01
2012-12-4,57.7,43.7,28.9,54.8,42.3,28.7,99,95,89,30.23,29.59,14,1,14,0.03
2012-12-5,58.3,48.6,30.7,55.1,37.7,16.5,94,67,46,30.03,29.59,21,7,21,0.07
2012-12-6,39.7,30.4,21.4,19.5,17.7,16.0,88,61,40,30.23,30.02,16,4,16,0.00
2012-12-7,44.2,30.4,19.2,39.7,27.2,17.5,99,88,65,30.20,29.77,4,0,11,0.04
2012-12-8,42.1,39.8,39.2,41.8,39.4,38.9,99,99,97,29.97,29.77,6,2,6,0.26
2012-12-9,44.8,39.5,33.6,41.8,34.8,30.8,99,84,59,30.21,29.81,9,2,9,0.05
2012-12-10,48.2,44.0,39.4,47.9,43.7,38.1,99,99,95,30.09,29.37,15,2,15,0.46
2012-12-11,45.1,39.9,28.2,43.9,36.9,25.4,99,89,63,30.04,29.41,10,1,10,0.04
2012-12-12,37.9,28.6,22.8,25.7,23.1,20.9,97,81,56,30.34,30.04,7,1,7,0.00
2012-12-13,43.2,28.8,20.7,28.5,23.0,20.2,98,82,44,30.38,30.19,6,1,6,0.00
2012-12-14,48.0,32.4,20.5,27.0,23.4,19.3,98,74,34,30.19,29.94,15,2,15,0.00
2012-12-15,40.1,31.5,23.7,27.3,22.1,17.9,92,69,42,30.26,30.05,9,2,9,0.00
2012-12-16,27.1,24.6,23.4,22.4,18.7,15.0,94,79,65,30.27,30.04,8,4,8,0.00
2012-12-17,33.4,29.5,23.9,33.1,28.5,22.4,99,96,94,30.04,29.65,8,4,8,0.02
2012-12-18,49.6,42.3,33.4,49.3,41.9,33.1,99,99,96,29.76,29.28,16,4,16,1.93
2012-12-19,43.9,39.8,36.1,39.1,33.8,29.3,98,80,65,29.93,29.29,15,6,15,0.02
2012-12-20,41.0,35.6,27.5,34.1,30.1,26.0,97,81,63,30.12,29.93,7,1,7,0.00
2012-12-21,52.0,43.4,34.9,50.6,40.0,31.2,99,88,69,29.95,28.98,36,10,36,4.08
2012-12-22,39.6,33.5,26.4,32.2,20.5,9.7,82,60,42,29.51,29.10,16,6,16,0.00
2012-12-23,39.4,30.3,18.1,20.9,14.2,8.1,77,52,32,29.74,29.51,17,4,17,0.00
2012-12-24,38.7,30.8,24.6,20.2,15.5,-7.1,72,55,31,29.97,29.74,13,3,13,0.00
2012-12-25,32.7,28.1,22.8,24.5,19.2,13.0,81,69,53,30.13,29.90,7,2,7,0.00
2012-12-26,36.7,27.4,14.0,31.7,17.6,-19.0,87,67,41,30.23,29.88,22,5,22,0.18
2012-12-27,41.9,34.8,28.8,40.0,32.6,27.0,93,92,84,29.88,29.20,30,12,30,5.77
2012-12-28,35.1,29.1,24.8,27.3,21.9,19.5,93,75,54,29.90,29.50,18,5,18,0.02
2012-12-29,31.5,27.1,21.2,27.7,22.4,18.2,91,83,65,29.89,29.33,9,2,9,0.00
2012-12-30,28.9,25.1,19.9,23.6,13.4,3.7,89,63,44,29.83,29.33,19,7,19,0.01
2012-12-31,34.7,26.3,15.6,21.4,14.3,4.2,74,60,50,29.91,29.64,16,4,16,0.00
2013-1-1,36.0,29.5,16.2,22.9,12.6,0.8,68,50,35,29.82,29.57,17,6,17,0.01